Tracking 28794 objects as of 22-Apr-2024
HD Live streaming from Space Station
objects crossing your sky now

CENTAURI-3(TYVAK-0210)

Track CENTAURI-3(TYVAK-0210) now!
10-day predictions
CENTAURI-3(TYVAK-0210) is classified as:


NORAD ID: 47966
Int'l Code: 2021-023B
Perigee: 402.8 km
Apogee: 418.4 km
Inclination: 45.0 °
Period: 92.6 minutes
Semi major axis: 6781 km
RCS: Unknown
Launch date: March 22, 2021
Source: Australia (AUS)
Launch site: Rocket Lab Launch Complex (RLLC)

Uplink (MHz):
Downlink (MHz): 400.180
Beacon (MHz):
Mode: 9600bps FSK
Call sign:
Status: Active

Your satellite tracking list
Your tracking list is empty




NASA's NSSDC Master Catalog

Two Line Element Set (TLE):
1 47966U 21023B   24112.56239398  .00271017  00000-0  38717-2 0  9991
2 47966  45.0076 197.2688 0011497  12.4508 347.6667 15.54543074170688
Source of the keplerian elements: AFSPC